Temp
49 49 50 51 50 49 48 48 48 48 47 45 45 45 45 45 44 44 44 44 44 43 43 42 42 41 39 38 37 37 37 37 37 39 40 38 36 35 35 35 34 34 35 35 35 35 35 34 35 37 39 40 38 37 36 36 35 34 34 34 35 34 34 33 33 33 33 33 34
47 48 50 52 51 50 49 48 48 47 47 45 45 45 44 45 44 44 43 43 43 43 42 42 40 38 37 37 37 37 36 36 36 37 38 37 36 35 35 35 34 35 35 35 34 35 35 34 35 37 39 39 37 36 36 36 35 34 34 33 34 35 35 35 34 34 34 34 33
47 47 48 48 48 48 48 47 46 44 43 43 44 44 44 44 44 44 43 42 41 40 40 41 39 38 37 36 35 35 36 36 36 36 36 36 35 35 34 34 34 35 36 35 34 34 34 33 35 38 40 39 36 36 36 36 36 35 35 34 35 36 37 38 36 35 35 36 34
46 46 46 46 45 45 46 46 44 43 42 43 42 42 43 43 44 43 42 39 39 39 39 38 38 37 37 37 36 35 36 38 38 36 35 35 35 35 34 34 34 34 34 33 33 33 32 32 35 37 38 35 34 35 36 37 35 35 36 36 36 37 37 39 37 37 37 37 34
45 45 45 45 44 44 44 43 43 42 42 43 43 43 43 42 42 41 41 41 41 40 38 37 36 36 37 38 36 36 36 37 39 37 35 35 35 34 34 34 34 34 34 33 33 32 32 32 35 36 36 35 36 37 36 34 33 34 35 37 37 37 38 38 37 37 36 36 35
45 44 43 43 43 43 42 42 41 41 42 43 42 42 42 43 42 42 41 41 39 37 37 39 39 39 39 37 36 35 35 35 35 34 34 35 34 34 34 34 34 34 33 33 32 32 32 31 35 37 37 37 36 36 35 33 33 34 34 36 37 37 37 36 36 36 35 34 33
44 44 43 43 42 42 42 41 41 41 41 42 41 40 40 40 39 39 38 38 37 37 38 41 39 38 37 36 36 35 35 34 34 33 34 34 34 34 34 34 34 33 33 33 32 32 31 31 35 38 39 40 39 37 35 33 33 33 34 35 37 37 36 34 34 34 33 32 31
43 43 42 42 42 42 41 41 42 42 42 42 40 39 39 38 38 38 37 37 37 38 39 39 36 35 35 35 35 35 35 34 34 34 33 33 33 34 34 33 33 33 33 32 32 32 32 32 35 36 37 37 39 38 36 33 32 32 33 34 36 36 35 33 33 32 32 31 30
43 42 41 41 41 41 41 40 41 41 41 40 39 38 38 38 38 38 38 38 38 38 38 36 35 34 34 34 34 34 34 33 34 33 33 33 33 34 34 33 33 33 33 32 32 32 32 33 35 36 36 37 38 37 35 32 32 32 32 33 34 34 33 32 31 31 31 31 31
43 42 41 41 40 40 40 39 40 40 39 38 38 38 39 41 39 38 38 39 39 37 36 35 34 34 34 34 34 33 33 33 33 33 33 33 34 34 34 33 33 33 33 32 32 32 32 34 35 34 34 35 34 33 32 32 32 31 32 35 34 33 31 31 30 30 30 31 31
42 42 41 41 40 41 41 40 40 40 39 38 38 38 39 40 38 38 38 38 37 36 35 34 34 34 34 34 34 33 33 32 32 32 33 33 34 34 33 33 33 33 33 32 32 32 33 34 34 34 33 33 33 33 32 32 32 31 31 33 32 32 31 31 31 31 31 32 31
41 41 40 40 40 40 41 41 40 40 39 39 38 38 38 37 37 38 38 37 37 36 35 34 33 33 34 34 33 34 34 32 32 32 33 33 33 33 33 33 32 33 33 32 32 33 34 34 33 33 33 33 33 34 33 32 32 31 31 31 31 31 31 31 31 31 32 31 31
41 40 40 39 40 40 40 40 40 39 39 39 39 38 38 37 38 38 38 37 37 36 35 34 34 33 33 33 32 32 32 32 32 32 33 33 33 33 33 33 33 33 33 32 33 33 33 33 33 33 33 33 34 34 33 32 31 32 32 31 31 31 31 31 31 31 31 30 30
40 40 40 39 40 40 40 40 40 39 39 39 39 38 38 37 38 38 37 36 36 35 34 33 34 34 34 32 32 32 32 32 32 32 32 33 33 33 33 33 32 33 33 33 33 33 33 33 32 32 32 33 33 33 32 32 31 32 32 32 32 32 32 32 31 30 30 30 30
40 40 40 40 40 40 40 40 40 40 39 39 39 38 37 37 37 37 36 35 34 33 33 32 33 34 34 33 32 32 32 32 32 32 33 33 33 33 32 33 33 33 33 33 33 33 33 33 32 32 32 32 33 33 32 32 31 32 32 32 32 32 32 31 30 30 29 29 29
40 40 40 40 40 40 40 40 40 40 39 39 38 38 37 36 36 36 36 35 33 32 32 33 32 32 33 34 34 32 31 31 32 32 32 33 33 33 33 33 33 33 33 33 33 33 33 33 33 32 32 32 32 33 33 32 32 32 32 32 32 32 31 31 30 30 29 29 29
40 39 40 40 39 39 39 39 40 40 39 39 38 37 36 35 35 36 36 35 33 32 33 33 32 31 32 33 34 33 32 32 32 32 32 33 33 33 33 33 34 34 33 33 33 33 33 33 33 32 32 32 32 33 33 33 33 33 32 32 32 31 31 31 30 29 29 29 30
39 39 39 39 39 38 39 39 39 39 39 38 37 36 35 34 34 34 35 35 33 33 33 33 31 31 31 32 32 33 34 32 32 32 32 32 32 32 33 33 34 33 33 32 33 33 33 34 33 33 32 32 32 33 33 33 33 33 33 32 31 30 30 30 29 29 29 29 30
38 38 38 38 38 38 39 40 39 39 38 37 36 35 34 33 33 33 33 33 33 33 32 32 31 31 31 32 31 33 34 33 33 32 32 32 32 32 32 33 33 33 32 32 32 33 33 33 33 33 33 33 33 34 33 33 33 33 32 31 30 30 29 28 28 28 28 28 29
37 37 37 38 38 38 39 40 39 39 38 36 35 35 34 33 32 32 33 33 33 32 31 31 31 32 32 31 31 32 33 34 32 32 32 32 31 32 32 33 33 32 32 32 32 33 33 33 33 33 33 33 34 33 33 33 33 32 31 30 30 29 28 28 28 28 28 28 28
37 37 37 37 38 38 39 39 39 38 37 36 35 34 33 33 32 32 33 33 33 31 30 31 32 32 32 32 32 32 32 33 32 32 31 31 32 32 32 32 32 32 32 32 33 33 33 33 33 34 34 34 34 33 33 33 32 31 30 29 29 28 28 27 27 27 28 28 28
36 36 37 37 38 39 39 39 38 37 36 35 34 33 33 32 32 32 32 32 31 31 31 31 32 32 32 32 32 31 31 32 31 31 31 31 32 32 33 32 32 32 32 32 33 33 33 34 34 34 34 34 34 33 33 33 32 31 30 29 28 28 27 27 27 28 28 28 28
36 36 37 38 39 40 40 39 38 37 35 34 34 33 33 32 32 31 30 30 32 32 32 31 31 31 31 31 31 30 30 31 31 31 31 31 32 32 32 32 31 31 32 33 33 33 34 35 36 36 35 35 34 34 33 33 32 31 30 29 28 28 28 28 28 28 28 28 28
36 36 37 38 38 39 39 39 37 36 35 34 33 33 32 31 31 31 30 30 31 32 31 31 31 31 30 30 29 29 30 30 31 31 31 32 32 32 32 32 32 32 33 34 35 37 38 40 39 39 38 38 37 36 35 33 32 31 30 30 29 29 28 28 28 28 28 28 28
36 37 38 38 39 39 38 38 37 36 35 33 32 31 31 31 31 31 31 31 31 31 31 31 30 30 30 29 29 29 29 30 30 31 31 32 32 32 32 33 33 33 34 36 40 43 44 44 43 42 41 40 39 38 36 34 33 32 31 30 30 29 29 28 28 28 28 28 28
36 37 38 38 39 39 38 37 36 34 33 32 31 31 31 31 31 31 31 32 31 31 30 30 29 31 32 31 30 30 30 30 30 30 30 32 32 32 32 33 35 35 35 39 42 44 45 45 45 44 43 40 39 38 37 36 34 32 31 31 30 30 29 29 29 28 28 29 29
37 38 38 38 38 38 37 36 34 32 32 31 31 31 31 30 30 30 31 31 30 30 29 29 29 32 33 31 30 30 30 30 30 30 30 30 31 31 31 33 34 35 37 41 43 44 45 45 45 45 44 41 39 38 37 37 34 33 32 31 30 30 29 29 29 29 29 29 29
37 37 38 38 38 37 35 33 32 32 31 31 31 31 30 30 30 30 30 30 29 29 29 29 30 31 31 30 30 30 30 30 30 30 30 30 30 30 31 33 34 36 39 42 43 44 45 45 45 45 45 43 40 38 37 36 35 34 32 31 30 29 28 28 29 29 29 29 30
38 38 38 39 37 35 34 32 32 32 31 31 31 31 31 30 30 30 30 29 29 29 30 29 31 30 30 30 30 29 29 29 30 30 30 30 30 30 31 32 33 35 39 42 43 44 44 44 45 45 45 44 41 39 38 36 35 34 32 32 30 29 29 29 29 29 29 31 32
38 39 39 37 36 34 33 32 32 32 31 31 30 30 30 30 30 30 29 29 29 30 30 29 29 29 29 29 29 29 30 30 30 30 29 29 30 31 32 33 33 35 38 42 43 44 44 44 44 44 44 44 42 40 38 36 34 33 32 32 30 30 30 29 28 28 30 34 33
39 39 38 36 35 34 33 32 32 31 31 30 30 30 30 30 30 29 28 28 29 30 31 29 28 29 29 29 29 29 29 29 29 29 29 29 31 32 32 31 31 34 38 42 43 44 44 44 44 44 44 44 43 40 37 36 33 32 31 31 31 31 32 33 31 32 33 34 33
39 38 37 37 35 34 33 32 32 31 30 30 29 30 29 29 28 27 27 27 28 28 29 28 29 29 29 29 29 29 29 29 29 30 30 30 30 30 30 31 31 34 38 42 43 43 43 43 43 43 43 44 42 40 36 34 32 31 32 34 35 35 34 33 33 33 33 32 31
38 37 37 36 34 33 33 32 31 30 29 29 29 29 28 27 26 25 26 27 28 28 28 29 29 29 29 29 30 29 29 30 30 31 31 31 29 29 30 31 32 35 39 42 42 43 43 43 43 43 43 43 42 38 35 31 32 34 36 37 37 36 35 34 34 33 31 30 30
37 36 35 34 33 32 31 30 29 29 29 29 29 28 27 26 26 27 28 29 29 28 28 29 29 29 29 29 29 29 30 32 31 30 29 29 28 29 29 31 33 37 40 42 42 42 42 42 42 43 43 43 40 37 34 31 34 36 37 36 36 35 35 35 34 32 31 29 30
35 34 33 32 31 30 29 29 28 28 28 29 28 28 27 26 26 27 28 31 31 29 28 28 28 28 28 28 28 29 30 30 29 29 29 29 29 29 29 30 31 35 39 41 41 42 42 42 42 42 42 41 39 36 34 35 36 37 36 36 35 35 34 34 34 33 31 31 31
34 33 32 31 30 29 28 27 27 28 28 28 28 27 27 26 25 26 28 31 30 29 27 27 27 27 27 28 28 29 30 29 29 29 29 30 29 29 28 29 29 33 38 40 41 41 41 42 42 42 41 40 37 36 37 38 37 37 36 35 35 35 34 33 33 33 32 32 32
34 33 32 30 29 28 27 26 27 27 28 27 27 26 26 26 26 26 27 30 28 27 27 27 27 28 28 28 28 29 29 28 28 28 29 30 29 29 28 29 28 31 36 39 40 41 41 41 41 41 40 38 36 36 36 36 36 36 36 34 34 34 34 33 33 33 32 32 33
33 31 30 29 28 27 26 26 27 27 27 27 26 25 25 26 26 26 28 30 28 28 28 28 28 28 28 28 28 28 28 27 28 28 28 29 28 28 28 28 28 30 34 38 40 40 41 41 41 41 40 37 36 35 35 34 34 34 34 33 34 34 34 34 34 34 33 32 34
31 30 29 29 28 27 27 26 27 27 27 26 26 25 25 25 26 27 29 30 28 27 27 28 28 28 28 29 28 28 28 27 28 28 28 27 28 30 30 29 28 29 32 37 39 40 40 41 41 41 40 38 35 34 34 34 34 33 33 33 34 33 34 35 34 33 33 32 35
29 28 28 27 27 27 27 27 27 27 26 26 26 26 26 26 27 29 29 28 26 26 27 27 27 28 28 30 29 27 27 27 27 27 27 28 29 31 33 30 28 28 31 35 38 39 40 40 40 40 40 38 36 35 34 34 34 33 33 34 34 33 33 33 33 33 32 31 34
27 27 27 27 27 27 27 28 27 27 26 26 26 27 28 29 28 28 27 26 26 26 26 27 27 27 27 29 28 27 26 27 27 27 27 28 28 30 31 28 27 27 28 32 36 39 40 40 40 40 40 38 36 35 35 34 34 33 33 33 33 32 32 32 32 32 32 32 33
MSLP
1014.98 1015.14 1015.34 1015.54 1015.74 1015.98 1016.18 1016.30 1016.46 1016.58 1016.70 1016.86 1017.06 1017.22 1017.34 1017.46 1017.62 1017.78 1017.82 1017.86 1017.94 1018.06 1018.14 1018.14 1018.22 1018.26 1018.30 1018.30 1018.30 1018.34 1018.34 1018.30 1018.30 1018.26 1018.22 1018.22 1018.22 1018.22 1018.18 1018.14 1018.10 1018.02 1017.98 1017.90 1017.82 1017.78 1017.70 1017.70 1017.66 1017.58 1017.50 1017.46 1017.46 1017.42 1017.38 1017.30 1017.30 1017.30 1017.26 1017.22 1017.18 1017.14 1017.10 1017.06 1016.98 1016.90 1016.86 1016.74 1016.70
1015.14 1015.26 1015.38 1015.58 1015.78 1016.02 1016.26 1016.42 1016.58 1016.70 1016.82 1016.90 1017.06 1017.18 1017.30 1017.42 1017.62 1017.74 1017.82 1017.90 1017.94 1018.02 1018.10 1018.14 1018.18 1018.26 1018.30 1018.30 1018.30 1018.34 1018.34 1018.30 1018.30 1018.26 1018.26 1018.26 1018.22 1018.22 1018.14 1018.10 1018.06 1017.98 1017.98 1017.90 1017.86 1017.82 1017.78 1017.74 1017.70 1017.62 1017.54 1017.50 1017.50 1017.46 1017.42 1017.26 1017.30 1017.30 1017.26 1017.22 1017.14 1017.10 1017.02 1016.98 1016.94 1016.82 1016.74 1016.70 1016.58
1015.22 1015.38 1015.54 1015.70 1015.94 1016.14 1016.34 1016.54 1016.70 1016.86 1016.98 1017.06 1017.10 1017.22 1017.38 1017.42 1017.54 1017.70 1017.82 1017.90 1017.98 1018.02 1018.10 1018.14 1018.22 1018.26 1018.26 1018.30 1018.30 1018.30 1018.30 1018.30 1018.30 1018.30 1018.30 1018.26 1018.22 1018.18 1018.14 1018.14 1018.06 1017.98 1017.94 1017.90 1017.86 1017.82 1017.82 1017.78 1017.70 1017.66 1017.54 1017.54 1017.54 1017.50 1017.42 1017.26 1017.26 1017.26 1017.26 1017.22 1017.10 1016.98 1016.98 1016.90 1016.82 1016.70 1016.66 1016.54 1016.54
1015.30 1015.46 1015.66 1015.90 1016.06 1016.22 1016.42 1016.58 1016.78 1016.94 1017.06 1017.14 1017.22 1017.30 1017.42 1017.50 1017.62 1017.74 1017.86 1017.98 1018.02 1018.06 1018.14 1018.18 1018.26 1018.26 1018.26 1018.26 1018.30 1018.30 1018.30 1018.26 1018.30 1018.34 1018.34 1018.26 1018.22 1018.14 1018.14 1018.10 1018.06 1017.98 1017.98 1017.94 1017.90 1017.86 1017.82 1017.82 1017.74 1017.66 1017.58 1017.58 1017.54 1017.54 1017.42 1017.26 1017.26 1017.26 1017.22 1017.14 1016.98 1016.98 1016.90 1016.82 1016.70 1016.62 1016.54 1016.50 1016.46
1015.46 1015.62 1015.78 1015.98 1016.14 1016.26 1016.42 1016.62 1016.82 1016.98 1017.10 1017.14 1017.26 1017.42 1017.54 1017.62 1017.70 1017.82 1017.94 1017.98 1018.06 1018.14 1018.14 1018.18 1018.22 1018.26 1018.26 1018.26 1018.30 1018.34 1018.34 1018.30 1018.30 1018.34 1018.34 1018.26 1018.26 1018.14 1018.14 1018.10 1018.06 1018.02 1017.98 1017.94 1017.90 1017.90 1017.86 1017.82 1017.74 1017.66 1017.62 1017.58 1017.54 1017.42 1017.34 1017.26 1017.26 1017.26 1017.14 1017.02 1016.94 1016.86 1016.82 1016.74 1016.66 1016.54 1016.54 1016.46 1016.42
1015.58 1015.78 1015.94 1016.06 1016.22 1016.42 1016.54 1016.70 1016.86 1016.98 1017.14 1017.22 1017.34 1017.50 1017.66 1017.70 1017.82 1017.90 1017.98 1018.10 1018.18 1018.18 1018.18 1018.14 1018.18 1018.18 1018.26 1018.26 1018.34 1018.34 1018.34 1018.38 1018.34 1018.38 1018.38 1018.30 1018.26 1018.14 1018.14 1018.10 1018.06 1018.02 1017.98 1017.98 1017.94 1017.94 1017.90 1017.86 1017.74 1017.66 1017.58 1017.54 1017.42 1017.38 1017.30 1017.26 1017.26 1017.22 1017.14 1017.02 1016.90 1016.82 1016.78 1016.70 1016.58 1016.54 1016.50 1016.42 1016.42
1015.66 1015.82 1016.02 1016.18 1016.30 1016.46 1016.66 1016.82 1016.94 1017.06 1017.14 1017.26 1017.42 1017.62 1017.78 1017.82 1017.94 1018.02 1018.14 1018.14 1018.18 1018.18 1018.18 1018.14 1018.18 1018.22 1018.26 1018.30 1018.42 1018.42 1018.42 1018.42 1018.38 1018.38 1018.38 1018.30 1018.26 1018.18 1018.14 1018.14 1018.10 1018.06 1018.02 1017.98 1017.94 1017.94 1017.90 1017.86 1017.74 1017.66 1017.54 1017.42 1017.42 1017.30 1017.26 1017.22 1017.18 1017.18 1017.14 1017.02 1016.86 1016.74 1016.70 1016.66 1016.54 1016.50 1016.46 1016.42 1016.42
1015.70 1015.90 1016.06 1016.26 1016.42 1016.54 1016.70 1016.86 1016.98 1017.14 1017.26 1017.38 1017.54 1017.74 1017.82 1017.94 1018.02 1018.14 1018.14 1018.18 1018.22 1018.22 1018.22 1018.18 1018.26 1018.30 1018.34 1018.38 1018.42 1018.42 1018.42 1018.42 1018.42 1018.34 1018.34 1018.30 1018.26 1018.22 1018.18 1018.14 1018.14 1018.06 1018.02 1017.98 1017.98 1017.94 1017.90 1017.82 1017.74 1017.66 1017.54 1017.42 1017.38 1017.26 1017.14 1017.14 1017.14 1017.14 1017.14 1017.02 1016.86 1016.70 1016.62 1016.54 1016.50 1016.46 1016.42 1016.42 1016.34
1015.90 1016.06 1016.18 1016.38 1016.50 1016.66 1016.78 1016.90 1017.02 1017.18 1017.38 1017.54 1017.70 1017.78 1017.86 1017.98 1018.06 1018.10 1018.14 1018.22 1018.22 1018.22 1018.22 1018.26 1018.30 1018.34 1018.38 1018.42 1018.46 1018.46 1018.46 1018.42 1018.42 1018.38 1018.34 1018.30 1018.26 1018.26 1018.22 1018.18 1018.14 1018.10 1017.98 1017.98 1017.98 1017.94 1017.86 1017.82 1017.70 1017.58 1017.54 1017.42 1017.38 1017.26 1017.14 1017.14 1017.14 1017.14 1017.06 1016.90 1016.78 1016.66 1016.54 1016.54 1016.46 1016.42 1016.38 1016.34 1016.26
1016.02 1016.22 1016.34 1016.54 1016.66 1016.78 1016.90 1017.02 1017.14 1017.26 1017.42 1017.62 1017.70 1017.82 1017.86 1017.94 1017.98 1018.10 1018.14 1018.18 1018.22 1018.26 1018.26 1018.30 1018.34 1018.38 1018.42 1018.42 1018.46 1018.46 1018.46 1018.42 1018.42 1018.42 1018.38 1018.30 1018.30 1018.26 1018.26 1018.22 1018.18 1018.10 1018.02 1017.98 1017.94 1017.94 1017.86 1017.78 1017.70 1017.58 1017.50 1017.42 1017.30 1017.26 1017.14 1017.10 1017.10 1017.06 1016.98 1016.82 1016.70 1016.62 1016.54 1016.50 1016.42 1016.34 1016.26 1016.18 1016.14
1016.14 1016.30 1016.46 1016.62 1016.78 1016.86 1016.98 1017.14 1017.26 1017.38 1017.50 1017.66 1017.78 1017.82 1017.90 1017.98 1018.06 1018.14 1018.14 1018.14 1018.26 1018.30 1018.34 1018.34 1018.34 1018.38 1018.42 1018.42 1018.46 1018.42 1018.42 1018.42 1018.42 1018.42 1018.38 1018.30 1018.26 1018.26 1018.26 1018.26 1018.22 1018.14 1018.02 1017.98 1017.90 1017.86 1017.82 1017.70 1017.66 1017.54 1017.42 1017.34 1017.26 1017.18 1017.14 1017.02 1016.98 1016.98 1016.86 1016.74 1016.70 1016.58 1016.50 1016.42 1016.30 1016.26 1016.14 1016.06 1015.98
1016.26 1016.42 1016.58 1016.70 1016.86 1016.98 1017.06 1017.26 1017.42 1017.50 1017.58 1017.70 1017.82 1017.90 1017.98 1018.02 1018.14 1018.14 1018.18 1018.22 1018.26 1018.34 1018.34 1018.34 1018.38 1018.42 1018.42 1018.42 1018.42 1018.38 1018.34 1018.38 1018.38 1018.38 1018.38 1018.34 1018.30 1018.26 1018.26 1018.22 1018.14 1018.10 1018.02 1017.94 1017.82 1017.82 1017.74 1017.70 1017.62 1017.54 1017.42 1017.30 1017.22 1017.14 1017.02 1016.98 1016.94 1016.86 1016.78 1016.62 1016.58 1016.50 1016.42 1016.26 1016.22 1016.14 1016.02 1015.98 1015.86
1016.34 1016.50 1016.70 1016.86 1016.94 1017.02 1017.18 1017.34 1017.46 1017.58 1017.70 1017.82 1017.86 1017.94 1017.98 1018.06 1018.14 1018.14 1018.14 1018.22 1018.26 1018.34 1018.38 1018.38 1018.38 1018.42 1018.42 1018.42 1018.42 1018.38 1018.38 1018.38 1018.38 1018.38 1018.38 1018.34 1018.30 1018.26 1018.26 1018.18 1018.10 1018.02 1017.98 1017.90 1017.78 1017.70 1017.70 1017.58 1017.54 1017.50 1017.42 1017.26 1017.14 1017.02 1016.98 1016.94 1016.86 1016.78 1016.70 1016.58 1016.46 1016.42 1016.34 1016.18 1016.10 1015.98 1015.94 1015.86 1015.82
1016.42 1016.58 1016.78 1016.90 1017.02 1017.14 1017.26 1017.42 1017.54 1017.70 1017.78 1017.86 1017.94 1017.98 1018.06 1018.10 1018.14 1018.14 1018.18 1018.26 1018.30 1018.38 1018.38 1018.38 1018.38 1018.38 1018.38 1018.38 1018.38 1018.38 1018.38 1018.38 1018.38 1018.38 1018.38 1018.34 1018.30 1018.26 1018.22 1018.14 1018.10 1017.98 1017.90 1017.82 1017.74 1017.66 1017.58 1017.54 1017.46 1017.42 1017.34 1017.18 1017.10 1016.94 1016.86 1016.86 1016.78 1016.70 1016.58 1016.50 1016.42 1016.30 1016.18 1016.06 1015.98 1015.90 1015.82 1015.74 1015.70
1016.54 1016.70 1016.86 1016.98 1017.14 1017.26 1017.42 1017.54 1017.62 1017.74 1017.82 1017.94 1017.98 1018.02 1018.10 1018.14 1018.14 1018.18 1018.22 1018.26 1018.38 1018.42 1018.42 1018.42 1018.38 1018.34 1018.30 1018.34 1018.34 1018.34 1018.34 1018.34 1018.38 1018.38 1018.38 1018.30 1018.26 1018.26 1018.18 1018.14 1018.06 1017.98 1017.86 1017.78 1017.70 1017.58 1017.50 1017.46 1017.38 1017.26 1017.22 1017.14 1016.98 1016.86 1016.74 1016.70 1016.62 1016.54 1016.46 1016.34 1016.26 1016.14 1016.02 1015.90 1015.82 1015.82 1015.74 1015.70 1015.62
1016.70 1016.82 1016.94 1017.06 1017.18 1017.34 1017.46 1017.58 1017.70 1017.74 1017.86 1017.98 1018.02 1018.06 1018.14 1018.18 1018.26 1018.26 1018.26 1018.34 1018.42 1018.42 1018.42 1018.42 1018.42 1018.38 1018.34 1018.30 1018.30 1018.34 1018.34 1018.38 1018.38 1018.38 1018.38 1018.38 1018.26 1018.22 1018.14 1018.14 1018.02 1017.94 1017.82 1017.74 1017.62 1017.54 1017.42 1017.34 1017.26 1017.18 1017.14 1017.02 1016.90 1016.78 1016.66 1016.54 1016.50 1016.42 1016.26 1016.14 1016.06 1015.98 1015.86 1015.78 1015.74 1015.70 1015.62 1015.54 1015.50
1016.82 1016.94 1017.06 1017.14 1017.26 1017.42 1017.54 1017.66 1017.70 1017.82 1017.90 1017.98 1018.02 1018.14 1018.18 1018.26 1018.26 1018.26 1018.30 1018.34 1018.42 1018.42 1018.46 1018.42 1018.42 1018.42 1018.38 1018.30 1018.30 1018.30 1018.34 1018.38 1018.38 1018.42 1018.42 1018.38 1018.30 1018.26 1018.14 1018.10 1017.98 1017.86 1017.78 1017.70 1017.58 1017.46 1017.34 1017.26 1017.14 1017.06 1016.98 1016.90 1016.82 1016.66 1016.54 1016.42 1016.34 1016.22 1016.10 1015.98 1015.90 1015.82 1015.70 1015.66 1015.58 1015.54 1015.50 1015.46 1015.38
1016.98 1017.06 1017.14 1017.26 1017.38 1017.50 1017.58 1017.70 1017.78 1017.86 1017.94 1018.02 1018.10 1018.14 1018.22 1018.26 1018.34 1018.34 1018.38 1018.42 1018.42 1018.46 1018.50 1018.50 1018.46 1018.42 1018.42 1018.38 1018.34 1018.34 1018.34 1018.38 1018.38 1018.38 1018.38 1018.34 1018.26 1018.22 1018.14 1018.02 1017.90 1017.82 1017.70 1017.66 1017.54 1017.42 1017.30 1017.14 1017.02 1016.94 1016.86 1016.78 1016.66 1016.54 1016.38 1016.26 1016.14 1016.06 1015.94 1015.82 1015.70 1015.66 1015.58 1015.54 1015.46 1015.42 1015.38 1015.34 1015.22
1017.10 1017.14 1017.26 1017.34 1017.46 1017.54 1017.62 1017.70 1017.82 1017.90 1017.98 1018.06 1018.14 1018.18 1018.26 1018.30 1018.34 1018.42 1018.42 1018.42 1018.42 1018.46 1018.50 1018.50 1018.46 1018.42 1018.42 1018.42 1018.38 1018.34 1018.30 1018.38 1018.38 1018.34 1018.30 1018.26 1018.26 1018.14 1018.06 1017.98 1017.82 1017.74 1017.66 1017.54 1017.42 1017.30 1017.18 1017.06 1016.94 1016.82 1016.70 1016.58 1016.46 1016.34 1016.22 1016.10 1015.98 1015.86 1015.78 1015.70 1015.58 1015.50 1015.42 1015.38 1015.34 1015.26 1015.22 1015.14 1015.06
1017.14 1017.26 1017.30 1017.42 1017.50 1017.54 1017.66 1017.74 1017.82 1017.90 1017.98 1018.10 1018.14 1018.22 1018.26 1018.34 1018.42 1018.42 1018.42 1018.46 1018.46 1018.46 1018.50 1018.46 1018.46 1018.42 1018.42 1018.38 1018.38 1018.34 1018.30 1018.34 1018.38 1018.34 1018.26 1018.22 1018.18 1018.10 1017.98 1017.90 1017.78 1017.70 1017.58 1017.46 1017.34 1017.22 1017.10 1016.94 1016.82 1016.66 1016.54 1016.46 1016.30 1016.18 1016.06 1015.94 1015.82 1015.70 1015.62 1015.54 1015.42 1015.38 1015.30 1015.26 1015.18 1015.14 1015.06 1014.98 1014.94
1017.26 1017.30 1017.38 1017.46 1017.50 1017.58 1017.70 1017.78 1017.82 1017.94 1017.98 1018.10 1018.18 1018.26 1018.30 1018.38 1018.42 1018.46 1018.46 1018.42 1018.46 1018.46 1018.46 1018.46 1018.46 1018.46 1018.42 1018.42 1018.42 1018.42 1018.38 1018.34 1018.34 1018.34 1018.26 1018.22 1018.14 1018.02 1017.94 1017.82 1017.70 1017.62 1017.50 1017.34 1017.22 1017.10 1016.98 1016.86 1016.70 1016.54 1016.42 1016.26 1016.14 1016.02 1015.90 1015.78 1015.66 1015.54 1015.46 1015.38 1015.30 1015.26 1015.18 1015.10 1015.02 1014.98 1014.90 1014.86 1014.74
1017.26 1017.34 1017.42 1017.50 1017.54 1017.58 1017.70 1017.78 1017.86 1017.98 1018.06 1018.14 1018.22 1018.30 1018.34 1018.42 1018.42 1018.46 1018.46 1018.46 1018.46 1018.46 1018.46 1018.50 1018.46 1018.46 1018.46 1018.46 1018.46 1018.42 1018.42 1018.34 1018.30 1018.30 1018.26 1018.18 1018.10 1017.98 1017.82 1017.74 1017.70 1017.54 1017.42 1017.26 1017.14 1016.98 1016.86 1016.70 1016.54 1016.38 1016.22 1016.10 1015.98 1015.82 1015.70 1015.62 1015.54 1015.42 1015.34 1015.26 1015.18 1015.14 1015.02 1014.94 1014.86 1014.82 1014.74 1014.66 1014.54
1017.34 1017.42 1017.42 1017.50 1017.54 1017.62 1017.70 1017.82 1017.90 1018.02 1018.14 1018.18 1018.26 1018.34 1018.38 1018.42 1018.46 1018.46 1018.50 1018.50 1018.46 1018.42 1018.46 1018.46 1018.46 1018.46 1018.46 1018.46 1018.50 1018.50 1018.46 1018.42 1018.34 1018.26 1018.18 1018.14 1018.02 1017.90 1017.74 1017.70 1017.58 1017.46 1017.34 1017.22 1017.02 1016.86 1016.70 1016.50 1016.26 1016.14 1015.98 1015.86 1015.74 1015.66 1015.54 1015.42 1015.38 1015.26 1015.18 1015.10 1015.06 1014.98 1014.90 1014.82 1014.70 1014.66 1014.54 1014.46 1014.42
1017.38 1017.42 1017.46 1017.54 1017.58 1017.66 1017.78 1017.86 1017.98 1018.10 1018.22 1018.26 1018.34 1018.42 1018.42 1018.50 1018.50 1018.50 1018.50 1018.50 1018.50 1018.50 1018.50 1018.46 1018.46 1018.46 1018.46 1018.46 1018.50 1018.54 1018.54 1018.54 1018.42 1018.26 1018.14 1018.06 1017.94 1017.82 1017.70 1017.62 1017.50 1017.38 1017.26 1017.14 1016.94 1016.74 1016.50 1016.26 1016.06 1015.90 1015.74 1015.66 1015.54 1015.42 1015.38 1015.26 1015.18 1015.14 1015.02 1014.98 1014.86 1014.82 1014.70 1014.66 1014.58 1014.50 1014.42 1014.34 1014.26
1017.42 1017.42 1017.50 1017.54 1017.66 1017.74 1017.82 1017.98 1018.06 1018.14 1018.26 1018.38 1018.42 1018.46 1018.50 1018.54 1018.54 1018.54 1018.54 1018.54 1018.50 1018.50 1018.54 1018.50 1018.50 1018.46 1018.46 1018.50 1018.50 1018.50 1018.50 1018.50 1018.46 1018.34 1018.18 1018.02 1017.86 1017.74 1017.66 1017.54 1017.42 1017.26 1017.14 1016.98 1016.70 1016.46 1016.26 1016.10 1015.94 1015.74 1015.58 1015.46 1015.38 1015.26 1015.14 1015.10 1015.02 1014.94 1014.86 1014.82 1014.74 1014.66 1014.54 1014.50 1014.42 1014.38 1014.30 1014.22 1014.14
1017.42 1017.46 1017.54 1017.62 1017.70 1017.82 1017.94 1018.06 1018.14 1018.26 1018.38 1018.42 1018.46 1018.54 1018.54 1018.58 1018.54 1018.58 1018.58 1018.54 1018.54 1018.54 1018.54 1018.54 1018.54 1018.50 1018.50 1018.50 1018.54 1018.54 1018.50 1018.42 1018.42 1018.34 1018.26 1018.06 1017.86 1017.70 1017.62 1017.50 1017.38 1017.26 1017.06 1016.86 1016.54 1016.34 1016.14 1015.98 1015.78 1015.62 1015.46 1015.34 1015.22 1015.14 1015.02 1014.94 1014.86 1014.82 1014.74 1014.70 1014.58 1014.54 1014.42 1014.38 1014.26 1014.22 1014.14 1014.10 1013.98
1017.46 1017.54 1017.66 1017.70 1017.82 1017.90 1018.02 1018.14 1018.26 1018.34 1018.42 1018.50 1018.54 1018.58 1018.62 1018.62 1018.62 1018.58 1018.58 1018.58 1018.58 1018.54 1018.54 1018.54 1018.54 1018.54 1018.54 1018.54 1018.58 1018.54 1018.50 1018.42 1018.34 1018.26 1018.14 1018.02 1017.86 1017.74 1017.58 1017.42 1017.26 1017.14 1016.98 1016.70 1016.46 1016.26 1016.02 1015.82 1015.66 1015.50 1015.34 1015.22 1015.14 1014.98 1014.86 1014.74 1014.70 1014.66 1014.62 1014.54 1014.46 1014.42 1014.38 1014.26 1014.18 1014.10 1014.02 1013.98 1013.86
1017.54 1017.58 1017.70 1017.78 1017.90 1018.02 1018.14 1018.26 1018.34 1018.42 1018.54 1018.54 1018.62 1018.66 1018.66 1018.66 1018.62 1018.62 1018.62 1018.66 1018.66 1018.62 1018.62 1018.62 1018.58 1018.54 1018.54 1018.62 1018.62 1018.58 1018.54 1018.42 1018.26 1018.18 1018.06 1017.94 1017.82 1017.70 1017.54 1017.38 1017.26 1017.06 1016.86 1016.62 1016.42 1016.18 1015.98 1015.78 1015.54 1015.42 1015.26 1015.10 1014.98 1014.86 1014.78 1014.70 1014.58 1014.54 1014.50 1014.42 1014.38 1014.30 1014.26 1014.14 1014.10 1014.02 1013.94 1013.82 1013.74
1017.54 1017.66 1017.78 1017.90 1018.02 1018.14 1018.26 1018.34 1018.42 1018.50 1018.54 1018.62 1018.66 1018.70 1018.70 1018.70 1018.66 1018.66 1018.66 1018.70 1018.70 1018.70 1018.70 1018.70 1018.66 1018.62 1018.66 1018.70 1018.66 1018.54 1018.46 1018.34 1018.22 1018.14 1017.98 1017.86 1017.74 1017.58 1017.46 1017.30 1017.18 1016.98 1016.78 1016.54 1016.30 1016.06 1015.86 1015.70 1015.50 1015.30 1015.14 1014.98 1014.86 1014.74 1014.66 1014.58 1014.50 1014.42 1014.38 1014.30 1014.26 1014.18 1014.14 1014.06 1013.98 1013.94 1013.86 1013.74 1013.62
1017.58 1017.70 1017.86 1017.98 1018.14 1018.26 1018.34 1018.42 1018.50 1018.54 1018.62 1018.66 1018.70 1018.70 1018.70 1018.70 1018.70 1018.74 1018.74 1018.78 1018.78 1018.78 1018.78 1018.78 1018.74 1018.74 1018.74 1018.70 1018.62 1018.54 1018.42 1018.26 1018.14 1018.02 1017.94 1017.82 1017.70 1017.54 1017.38 1017.22 1017.10 1016.94 1016.70 1016.46 1016.22 1015.98 1015.78 1015.62 1015.42 1015.22 1015.06 1014.90 1014.74 1014.66 1014.58 1014.50 1014.46 1014.38 1014.26 1014.18 1014.14 1014.06 1013.98 1013.98 1013.94 1013.90 1013.78 1013.62 1013.54
1017.66 1017.78 1017.94 1018.10 1018.22 1018.34 1018.42 1018.50 1018.54 1018.62 1018.70 1018.70 1018.74 1018.74 1018.74 1018.74 1018.82 1018.86 1018.86 1018.86 1018.86 1018.82 1018.74 1018.74 1018.82 1018.78 1018.70 1018.66 1018.58 1018.50 1018.38 1018.22 1018.10 1017.98 1017.90 1017.78 1017.62 1017.46 1017.30 1017.18 1017.06 1016.90 1016.70 1016.42 1016.14 1015.90 1015.70 1015.54 1015.38 1015.18 1014.98 1014.82 1014.66 1014.54 1014.50 1014.42 1014.38 1014.26 1014.22 1014.14 1014.06 1013.98 1013.86 1013.82 1013.82 1013.78 1013.66 1013.54 1013.42
1017.74 1017.86 1018.02 1018.14 1018.30 1018.42 1018.50 1018.54 1018.62 1018.70 1018.74 1018.74 1018.78 1018.82 1018.86 1018.86 1018.90 1018.90 1018.90 1018.86 1018.86 1018.86 1018.82 1018.82 1018.82 1018.78 1018.70 1018.58 1018.54 1018.42 1018.26 1018.14 1018.02 1017.90 1017.78 1017.70 1017.54 1017.46 1017.34 1017.18 1017.06 1016.86 1016.62 1016.34 1016.06 1015.86 1015.70 1015.50 1015.30 1015.14 1014.94 1014.74 1014.58 1014.54 1014.46 1014.42 1014.34 1014.22 1014.14 1013.98 1013.90 1013.82 1013.74 1013.74 1013.70 1013.66 1013.54 1013.54 1013.42
1017.86 1017.98 1018.14 1018.26 1018.42 1018.50 1018.54 1018.58 1018.66 1018.70 1018.78 1018.78 1018.86 1018.86 1018.90 1018.90 1018.90 1018.90 1018.90 1018.86 1018.86 1018.90 1018.90 1018.86 1018.86 1018.82 1018.70 1018.58 1018.46 1018.34 1018.22 1018.14 1017.98 1017.82 1017.70 1017.58 1017.54 1017.42 1017.26 1017.14 1016.98 1016.78 1016.54 1016.26 1016.02 1015.82 1015.66 1015.42 1015.26 1015.06 1014.86 1014.66 1014.54 1014.50 1014.46 1014.38 1014.26 1014.14 1013.98 1013.86 1013.82 1013.78 1013.70 1013.70 1013.62 1013.54 1013.50 1013.42 1013.30
1017.98 1018.10 1018.22 1018.38 1018.46 1018.54 1018.62 1018.70 1018.70 1018.74 1018.82 1018.86 1018.86 1018.90 1018.98 1018.98 1018.98 1018.98 1018.94 1018.86 1018.86 1018.86 1018.86 1018.86 1018.82 1018.74 1018.66 1018.54 1018.42 1018.30 1018.18 1018.02 1017.86 1017.78 1017.70 1017.58 1017.50 1017.42 1017.26 1017.10 1016.94 1016.74 1016.46 1016.22 1015.98 1015.82 1015.62 1015.42 1015.22 1015.02 1014.86 1014.66 1014.54 1014.50 1014.42 1014.30 1014.14 1013.98 1013.90 1013.82 1013.78 1013.74 1013.70 1013.66 1013.54 1013.50 1013.42 1013.34 1013.14
1018.06 1018.22 1018.34 1018.46 1018.58 1018.66 1018.70 1018.78 1018.82 1018.82 1018.86 1018.90 1018.94 1018.98 1018.98 1019.02 1019.02 1018.98 1018.94 1018.86 1018.82 1018.82 1018.86 1018.82 1018.74 1018.70 1018.58 1018.50 1018.42 1018.26 1018.14 1017.98 1017.86 1017.74 1017.66 1017.54 1017.46 1017.34 1017.22 1017.10 1016.90 1016.70 1016.42 1016.22 1015.98 1015.78 1015.58 1015.42 1015.22 1014.98 1014.82 1014.70 1014.62 1014.54 1014.42 1014.26 1014.06 1013.94 1013.82 1013.82 1013.74 1013.70 1013.62 1013.58 1013.50 1013.42 1013.34 1013.22 1013.02
1018.14 1018.26 1018.42 1018.58 1018.70 1018.74 1018.82 1018.86 1018.86 1018.86 1018.94 1018.98 1019.02 1019.06 1019.06 1019.06 1018.98 1018.98 1018.90 1018.86 1018.86 1018.86 1018.86 1018.78 1018.70 1018.66 1018.54 1018.42 1018.30 1018.18 1018.06 1017.98 1017.86 1017.74 1017.62 1017.50 1017.42 1017.30 1017.18 1017.06 1016.86 1016.66 1016.42 1016.18 1015.98 1015.74 1015.54 1015.38 1015.18 1014.98 1014.86 1014.70 1014.66 1014.54 1014.42 1014.26 1014.06 1013.94 1013.82 1013.78 1013.70 1013.62 1013.54 1013.54 1013.42 1013.30 1013.18 1013.02 1012.86
1018.18 1018.30 1018.46 1018.62 1018.74 1018.82 1018.86 1018.90 1018.94 1018.98 1018.98 1019.06 1019.10 1019.10 1019.10 1019.10 1019.02 1018.98 1018.90 1018.86 1018.94 1018.94 1018.86 1018.74 1018.66 1018.58 1018.50 1018.42 1018.26 1018.14 1018.02 1017.90 1017.82 1017.74 1017.62 1017.46 1017.38 1017.26 1017.14 1016.98 1016.86 1016.66 1016.42 1016.18 1015.94 1015.74 1015.54 1015.38 1015.18 1014.98 1014.86 1014.70 1014.66 1014.54 1014.42 1014.26 1014.14 1013.98 1013.82 1013.78 1013.66 1013.62 1013.54 1013.42 1013.26 1013.14 1012.98 1012.86 1012.66
1018.26 1018.34 1018.50 1018.66 1018.78 1018.86 1018.86 1018.90 1018.98 1019.02 1019.06 1019.10 1019.10 1019.10 1019.06 1019.06 1019.02 1018.98 1018.90 1018.86 1018.90 1018.90 1018.86 1018.74 1018.66 1018.54 1018.42 1018.30 1018.18 1018.10 1017.98 1017.82 1017.78 1017.70 1017.62 1017.50 1017.38 1017.26 1017.14 1016.94 1016.78 1016.62 1016.42 1016.14 1015.94 1015.70 1015.54 1015.34 1015.14 1014.98 1014.86 1014.78 1014.66 1014.54 1014.42 1014.26 1014.14 1013.98 1013.82 1013.74 1013.62 1013.54 1013.46 1013.30 1013.14 1012.94 1012.78 1012.62 1012.42
1018.30 1018.42 1018.54 1018.66 1018.78 1018.86 1018.90 1018.98 1018.98 1019.06 1019.06 1019.10 1019.10 1019.06 1019.06 1019.06 1019.02 1018.98 1018.86 1018.86 1018.86 1018.86 1018.86 1018.74 1018.62 1018.46 1018.34 1018.26 1018.14 1018.06 1017.90 1017.82 1017.70 1017.66 1017.54 1017.46 1017.34 1017.18 1017.02 1016.86 1016.70 1016.54 1016.34 1016.14 1015.90 1015.70 1015.54 1015.34 1015.14 1014.98 1014.86 1014.78 1014.66 1014.54 1014.38 1014.26 1014.06 1013.94 1013.82 1013.70 1013.54 1013.42 1013.26 1013.14 1012.98 1012.74 1012.54 1012.38 1012.22
1018.38 1018.46 1018.54 1018.70 1018.74 1018.86 1018.90 1018.98 1018.98 1019.02 1019.02 1019.06 1019.06 1019.06 1019.02 1018.98 1018.98 1018.90 1018.86 1018.86 1018.86 1018.82 1018.78 1018.70 1018.54 1018.42 1018.26 1018.22 1018.14 1018.06 1017.94 1017.78 1017.66 1017.58 1017.54 1017.42 1017.26 1017.10 1016.90 1016.82 1016.70 1016.54 1016.34 1016.14 1015.90 1015.70 1015.50 1015.30 1015.14 1014.98 1014.82 1014.70 1014.62 1014.46 1014.34 1014.18 1013.98 1013.82 1013.70 1013.58 1013.42 1013.22 1013.02 1012.86 1012.70 1012.54 1012.42 1012.26 1012.10
1018.42 1018.54 1018.62 1018.70 1018.74 1018.82 1018.86 1018.98 1018.98 1018.98 1018.98 1019.02 1019.02 1019.02 1018.98 1018.94 1018.94 1018.90 1018.86 1018.86 1018.82 1018.74 1018.70 1018.58 1018.50 1018.42 1018.26 1018.18 1018.14 1018.06 1017.98 1017.78 1017.66 1017.54 1017.42 1017.34 1017.22 1017.02 1016.86 1016.74 1016.62 1016.46 1016.26 1016.14 1015.90 1015.70 1015.46 1015.26 1015.10 1014.94 1014.78 1014.66 1014.54 1014.42 1014.26 1014.10 1013.90 1013.74 1013.58 1013.46 1013.30 1013.10 1012.86 1012.62 1012.42 1012.34 1012.26 1012.14 1011.98
Wind_Speed
7 7 6 6 6 5 4 4 4 4 4 4 4 4 4 4 4 3 3 3 3 3 2 2 1 1 1 0 0 1 1 1 1 2 2 2 2 2 2 2 2 2 2 2 2 2 2 1 1 1 1 1 1 2 2 2 1 2 2 2 2 2 2 3 3 4 4 3 3
7 7 7 7 7 6 5 4 4 4 4 3 4 4 4 4 4 3 3 3 2 2 2 2 1 1 1 0 0 1 1 1 2 2 2 2 2 2 2 2 2 2 2 2 2 2 2 1 1 2 2 2 2 2 2 2 1 2 2 3 3 2 2 3 3 4 3 3 3
8 7 7 7 6 6 5 4 4 4 4 3 3 3 4 4 4 4 3 3 2 2 2 2 1 1 1 1 0 0 1 1 1 2 2 2 2 2 2 2 2 3 2 2 2 2 2 2 2 2 2 2 2 2 3 2 2 2 3 3 3 3 3 4 4 3 3 3 3
8 7 7 7 8 7 6 5 5 5 4 3 3 3 3 3 3 3 3 2 2 2 2 2 1 1 1 1 1 1 1 1 1 1 2 2 3 3 3 2 3 3 3 2 2 2 2 2 2 2 2 2 2 3 3 3 2 2 2 3 3 3 3 4 4 3 3 3 3
7 7 7 7 7 7 6 5 6 5 4 4 4 3 3 3 3 2 2 2 2 1 1 2 1 1 1 1 1 1 1 1 1 1 2 2 3 3 3 3 3 3 3 3 3 2 2 2 2 2 2 2 2 3 3 3 3 3 3 3 3 3 3 4 4 3 3 3 3
7 6 6 6 7 6 6 5 5 5 4 4 4 4 4 3 3 3 3 2 2 1 1 1 2 2 1 1 2 2 2 2 1 1 2 2 3 3 3 4 3 3 3 3 3 2 2 2 2 2 2 2 2 3 3 3 3 3 4 4 4 3 3 4 3 3 3 3 3
8 8 7 7 7 7 6 5 5 5 5 5 5 5 4 3 3 3 2 2 1 1 0 1 2 2 2 2 2 2 2 2 2 2 2 2 3 3 4 4 4 4 4 3 3 3 2 2 2 3 3 3 3 4 4 3 3 4 4 5 4 4 4 4 3 3 3 3 4
8 7 7 7 7 7 6 5 5 5 4 5 5 5 5 4 3 3 2 1 1 1 1 1 1 1 1 1 1 1 1 2 2 2 2 2 3 4 4 4 4 4 4 3 3 3 3 2 2 3 3 3 4 4 4 4 4 4 5 6 5 4 3 3 3 2 3 3 4
7 7 7 7 7 6 6 6 6 6 5 5 5 5 4 4 3 3 2 2 1 1 1 1 1 1 1 1 0 0 1 1 2 2 3 3 3 4 4 4 5 5 5 3 3 3 3 3 3 3 3 3 4 4 5 5 5 5 5 5 5 5 4 3 3 3 3 3 4
7 7 7 7 6 6 6 6 6 6 6 5 4 4 4 4 4 3 2 2 1 1 1 1 1 1 1 1 0 1 1 1 1 2 3 3 3 4 4 4 5 5 5 4 3 3 3 3 4 4 4 4 4 5 6 5 5 6 6 5 5 5 5 4 4 3 3 3 4
8 7 6 6 6 7 7 6 6 6 5 5 4 4 3 4 3 2 2 1 2 1 1 0 1 1 1 0 1 1 1 1 1 2 3 3 4 4 4 4 5 5 5 5 4 3 3 3 4 5 6 5 5 5 6 6 6 6 6 5 5 6 6 6 5 4 4 4 4
8 7 6 6 6 7 7 6 5 5 5 5 4 3 3 2 2 2 2 2 2 1 0 0 0 1 0 0 1 1 1 1 1 2 3 4 4 4 5 5 5 5 6 6 4 3 3 4 5 6 7 7 5 5 6 6 6 7 7 6 6 6 6 6 6 5 4 3 4
7 7 6 6 7 7 7 6 5 4 5 5 4 3 2 1 1 1 2 2 2 1 0 0 1 1 1 1 1 1 1 1 2 2 3 4 4 5 5 5 6 6 6 6 5 4 4 5 6 7 7 8 7 6 6 6 7 7 7 8 7 7 7 7 7 5 4 3 4
7 7 6 6 7 7 6 5 5 4 5 4 3 3 2 1 1 1 1 2 1 1 0 0 0 1 1 1 1 1 1 1 2 3 3 4 5 5 5 6 6 6 6 6 5 5 5 6 6 7 7 8 8 7 7 7 7 7 7 8 8 8 8 8 7 5 4 4 4
7 7 6 6 6 6 6 5 4 4 4 4 3 2 1 1 1 1 1 1 1 0 0 0 1 1 1 1 1 1 1 2 2 3 4 5 5 6 6 6 7 7 7 6 6 5 6 7 7 7 7 8 8 8 8 7 7 7 7 8 8 8 8 8 6 5 4 4 4
7 6 6 5 5 5 5 4 4 4 4 3 2 2 1 1 0 1 1 1 0 0 0 0 1 1 1 1 1 1 1 2 3 3 4 5 6 6 7 7 7 7 7 7 7 6 6 6 7 7 7 7 8 8 8 8 8 8 8 8 8 8 8 7 6 5 4 4 4
7 6 5 5 6 5 5 4 3 3 3 2 2 1 1 1 1 1 1 0 0 0 1 1 1 1 2 2 1 1 2 2 3 4 4 5 6 7 7 7 7 7 7 7 7 8 8 7 7 7 7 7 8 8 8 8 8 8 8 8 8 8 7 7 6 5 4 4 4
6 5 5 5 6 6 5 4 3 3 3 2 1 1 1 1 1 0 0 0 0 0 1 1 1 1 1 2 2 2 2 2 3 4 5 6 6 6 7 7 7 7 7 7 7 8 8 8 8 7 7 7 7 8 8 8 8 8 8 8 8 7 7 6 5 4 4 4 4
5 5 5 5 5 5 5 4 4 3 2 2 1 1 1 1 0 0 0 0 0 0 0 1 1 1 2 2 2 3 2 2 4 5 5 6 6 6 7 7 7 7 7 7 7 7 8 8 8 8 8 8 8 8 8 8 8 8 8 8 7 7 6 5 5 4 4 4 5
5 5 5 5 5 4 4 4 3 3 2 2 1 1 1 0 0 0 0 0 0 0 0 1 2 2 2 3 3 3 3 3 3 5 6 6 6 6 7 7 7 7 7 7 7 7 8 8 8 8 8 8 8 8 8 8 8 7 7 7 6 6 6 5 5 5 4 5 5
5 4 4 4 4 4 3 3 3 3 2 2 2 1 1 0 0 0 0 1 1 0 0 1 2 2 3 3 4 4 4 3 3 4 5 6 6 7 7 7 7 7 7 7 7 7 8 8 8 8 8 8 8 8 8 7 7 7 7 6 5 5 5 5 5 5 5 5 5
4 3 3 3 3 3 3 3 3 2 2 2 1 1 0 0 0 0 1 1 0 0 1 1 2 2 3 3 4 4 4 4 4 4 5 5 6 6 6 6 6 6 7 7 7 8 8 8 8 8 8 8 8 8 7 7 7 7 6 6 5 5 5 5 5 5 5 5 5
3 3 3 3 3 3 3 3 3 3 2 2 1 1 1 0 1 1 1 1 1 1 1 1 2 2 2 3 3 3 4 4 5 5 6 5 6 6 6 6 6 6 7 7 7 7 8 8 8 8 8 7 7 7 7 7 7 6 6 6 6 6 5 5 5 5 5 5 5
3 3 2 2 3 3 3 3 3 2 2 2 1 1 1 1 1 1 1 1 1 1 2 2 2 2 2 3 3 3 3 4 5 6 7 7 6 6 6 6 6 6 6 6 7 9 10 9 8 8 8 7 7 7 7 7 7 6 6 7 7 6 6 5 5 5 5 5 5
3 3 3 3 3 3 3 3 3 2 2 1 1 1 1 1 1 1 1 2 2 2 2 3 3 3 3 3 3 3 3 4 5 6 7 7 7 7 6 6 5 5 5 6 12 16 17 16 13 11 9 8 8 7 7 7 7 7 7 7 7 7 6 6 5 5 5 6 6
3 3 3 3 3 3 3 3 2 2 2 1 1 1 1 1 1 1 1 2 2 2 3 3 3 3 3 3 4 4 4 4 5 5 6 7 8 7 6 6 6 5 6 9 15 19 20 20 19 16 12 9 8 8 7 7 7 7 7 7 7 7 7 7 6 5 5 5 5
3 3 3 3 4 4 3 3 2 2 2 1 1 1 1 1 1 1 2 2 2 3 3 3 3 3 4 3 4 4 5 5 5 5 6 6 7 7 7 6 6 6 7 13 17 19 20 20 20 19 16 11 9 8 8 7 7 7 7 6 6 6 7 7 7 6 6 5 5
3 3 3 4 4 4 3 2 2 2 2 1 1 1 1 1 1 2 2 3 3 3 3 3 3 3 3 3 4 4 5 5 5 5 6 6 6 7 7 6 6 7 10 16 19 20 20 20 20 21 19 16 10 8 7 7 7 7 6 6 6 6 6 6 6 6 5 5 5
3 4 4 5 4 3 2 2 2 2 1 1 0 0 1 1 2 2 3 3 3 3 3 3 3 3 3 4 4 5 5 5 5 5 5 6 6 7 7 7 7 9 13 18 19 20 20 20 21 21 21 19 12 8 7 6 6 6 6 6 6 6 6 5 5 4 5 5 6
4 4 5 5 4 3 2 2 2 1 1 0 0 1 1 2 3 3 3 3 3 3 2 2 2 3 4 4 4 4 5 5 5 5 5 6 6 7 7 8 7 9 12 18 19 20 20 21 21 21 21 21 15 10 7 6 6 6 6 6 6 6 6 5 4 4 5 6 7
4 5 5 5 4 3 2 2 1 1 1 0 1 1 2 3 3 3 2 2 2 2 2 2 3 4 4 4 4 4 5 5 5 5 5 6 7 8 8 8 8 9 12 17 19 20 20 21 21 21 21 21 16 11 7 7 6 6 6 6 6 5 5 4 4 4 6 7 8
5 5 5 5 4 3 2 2 1 1 1 1 1 2 3 2 2 1 1 1 2 2 3 3 3 4 5 5 4 4 5 5 6 6 6 6 7 7 7 8 8 9 12 17 19 20 20 21 21 21 21 22 16 11 8 7 6 6 6 6 6 5 4 4 4 5 6 7 8
5 5 5 5 4 3 2 1 1 1 1 1 2 2 2 2 2 2 2 2 2 2 2 3 4 4 5 5 5 5 5 6 6 7 7 7 7 6 7 7 7 9 13 18 19 20 20 21 21 21 22 22 15 11 8 7 6 5 6 5 5 5 5 5 5 6 6 7 8
5 5 5 4 3 2 2 1 1 1 1 2 2 2 2 2 2 3 3 2 2 2 2 2 3 3 4 4 4 5 5 6 6 6 7 7 7 7 7 7 6 9 14 18 19 20 20 21 21 21 21 21 14 10 7 7 6 6 6 5 5 5 5 6 6 7 7 8 9
5 5 5 4 3 2 1 1 1 1 2 3 3 3 2 2 2 2 2 2 2 2 2 3 3 3 3 3 3 4 5 6 6 6 7 7 7 7 7 7 7 10 14 18 19 19 20 20 21 21 21 17 11 8 8 8 8 7 7 6 6 6 6 7 7 7 7 8 10
5 5 5 3 2 2 1 1 1 2 3 3 3 3 2 2 2 2 2 2 2 2 3 3 3 3 3 4 3 4 4 5 6 6 7 7 7 7 7 7 7 10 14 17 18 19 19 20 21 21 19 14 9 8 8 9 9 9 8 7 7 7 8 7 7 7 8 9 10
5 5 5 4 2 1 1 1 2 2 2 2 2 2 2 2 2 2 2 2 2 3 3 3 3 4 4 4 4 4 5 5 5 6 7 7 7 7 7 7 7 9 12 15 17 18 19 20 20 20 18 12 9 8 8 8 8 8 8 8 7 8 8 7 8 8 9 9 11
4 5 4 4 3 2 1 2 2 2 2 2 1 1 1 2 2 2 2 2 2 3 3 3 4 4 5 5 5 6 6 6 5 6 6 7 7 7 7 7 7 8 10 14 16 18 19 19 20 20 17 12 9 8 7 7 7 7 7 7 7 8 8 8 8 8 9 10 14
4 4 4 4 3 2 2 2 2 1 1 1 2 2 2 2 2 2 2 2 2 2 3 3 4 5 5 6 6 6 6 6 6 6 6 6 7 7 7 7 7 7 9 13 15 17 18 19 20 20 18 12 9 7 7 6 7 7 7 7 8 8 9 8 8 8 9 10 15
3 3 3 3 3 2 2 1 1 0 1 1 2 2 2 2 2 3 2 2 2 2 3 3 5 5 6 6 6 6 6 6 6 6 6 6 7 8 9 7 7 7 9 12 14 16 18 19 19 20 18 12 9 7 6 6 7 8 8 8 8 9 9 9 8 8 8 9 12
3 3 3 3 3 2 2 1 0 1 1 1 2 2 2 2 2 2 2 2 2 2 3 4 5 6 6 6 5 5 6 6 6 6 6 6 7 8 8 7 7 7 8 10 13 15 17 18 19 20 18 13 9 7 7 7 8 9 9 9 8 8 9 9 8 7 7 7 8
Wind_Direction
110 112 114 114 114 113 113 113 114 116 119 121 122 123 122 120 122 124 125 121 122 125 127 129 134 135 136 64 44 31 19 12 10 9 7 5 346 328 317 310 306 306 307 308 310 310 314 319 321 318 313 311 309 303 299 299 311 318 319 316 308 303 300 303 299 299 297 296 291
110 111 111 112 112 111 110 110 109 109 110 113 120 123 124 122 124 125 126 122 124 125 125 121 118 115 106 65 58 51 38 23 12 5 1 353 335 325 317 313 306 306 306 309 312 314 317 324 326 324 320 317 324 317 308 297 305 318 318 311 303 300 301 303 297 293 291 292 292
112 110 109 111 113 114 115 114 112 110 109 109 112 115 117 118 121 122 123 123 122 119 114 110 102 95 89 62 39 40 46 33 15 2 351 339 327 322 318 316 315 314 314 314 312 312 312 314 314 316 320 322 324 318 309 301 310 316 312 304 301 303 306 306 301 297 296 299 301
112 112 112 113 116 118 119 121 118 115 113 112 106 105 105 108 110 114 116 116 103 97 103 114 112 105 92 71 43 29 23 22 15 358 340 327 322 318 316 319 324 323 321 318 316 312 308 304 303 309 315 317 314 308 304 304 312 311 304 298 303 306 307 305 302 301 301 302 302
110 112 115 117 117 117 117 116 116 116 114 111 104 100 97 98 100 103 101 96 93 97 113 126 125 117 95 71 49 31 15 6 0 347 331 321 316 316 319 326 326 323 320 318 314 310 307 305 302 303 303 300 298 295 294 297 307 307 303 303 306 306 304 303 302 301 301 302 303
113 110 109 110 110 109 107 107 110 111 110 106 102 100 98 97 96 96 99 102 111 123 133 125 112 98 81 61 44 25 6 348 340 331 323 318 317 321 326 328 325 322 320 318 314 308 305 306 308 307 305 303 300 295 292 294 305 308 308 309 307 306 305 302 298 298 300 302 304
117 114 111 109 108 108 107 105 106 105 104 101 102 103 104 101 98 99 106 116 118 115 106 98 88 80 71 57 38 15 352 332 324 319 319 320 322 325 326 324 323 322 319 316 314 310 306 300 309 310 311 312 310 305 302 305 310 310 309 307 305 305 302 296 293 295 298 297 297
110 110 111 110 109 109 108 108 106 103 101 100 104 108 111 109 108 109 109 99 93 87 83 78 79 81 80 72 49 8 332 323 321 320 321 324 325 324 323 323 323 320 316 313 313 309 304 297 304 307 309 312 311 309 308 309 311 309 305 302 301 301 299 293 291 288 288 289 292
103 103 104 104 104 105 106 106 105 105 103 103 106 111 115 116 117 114 110 104 108 97 79 71 80 87 88 81 57 324 304 311 317 319 321 326 326 324 322 322 321 318 314 311 309 305 302 301 303 303 303 306 307 306 305 307 307 305 301 298 299 299 297 292 287 281 278 282 290
109 106 104 102 102 102 102 99 100 101 103 104 105 107 110 111 111 114 118 131 122 89 64 67 79 84 78 66 343 287 282 288 308 317 321 323 322 319 317 315 315 313 311 309 307 304 303 304 305 303 302 302 301 300 300 300 301 300 298 298 301 301 299 292 284 279 277 282 289
113 112 110 109 108 105 101 97 96 96 98 100 99 98 98 102 107 117 130 133 102 82 66 64 100 95 84 31 277 276 279 284 309 321 322 318 315 311 309 307 307 306 306 305 305 306 306 306 305 304 303 301 300 299 298 298 299 298 297 296 299 299 297 291 284 280 280 285 290
113 111 110 110 109 105 102 100 98 97 97 98 99 99 100 105 120 133 132 108 93 92 101 231 143 131 144 250 263 275 292 306 320 324 320 314 311 308 306 305 304 303 303 302 302 305 306 305 304 303 303 302 301 300 299 299 300 300 299 298 298 297 295 290 286 283 282 287 294
113 111 109 108 105 103 101 101 102 101 101 103 105 107 110 119 136 134 118 100 100 109 175 231 188 177 195 244 266 287 310 324 328 324 318 311 308 308 307 306 305 304 303 302 302 304 305 303 301 301 301 301 300 298 298 298 299 299 299 299 298 296 293 290 287 286 287 291 294
110 110 109 107 104 103 103 104 106 106 107 110 114 117 120 125 122 110 106 105 111 134 218 247 230 218 219 240 273 302 319 330 332 325 318 311 308 308 307 306 305 305 304 304 304 305 304 301 300 298 298 298 297 296 295 295 295 294 295 296 296 294 291 289 287 287 289 293 294
107 108 108 107 105 105 106 109 111 111 113 116 122 124 120 114 86 83 93 106 123 172 241 279 287 283 271 260 290 318 330 336 333 326 318 312 309 308 307 306 306 306 306 306 306 305 303 300 298 296 296 295 295 295 294 293 291 290 290 289 289 289 288 287 286 285 285 288 293
107 107 108 107 107 108 109 112 114 114 116 121 125 120 110 101 68 66 84 103 127 237 302 323 312 313 312 311 331 346 344 338 331 323 316 311 308 307 307 307 307 306 307 308 308 306 304 300 298 296 294 292 292 293 293 292 290 289 287 285 284 284 283 282 281 278 276 278 288
108 109 109 110 111 113 114 116 115 114 116 120 116 105 93 87 60 58 69 95 86 1 338 319 314 322 328 330 344 353 348 335 324 315 309 304 304 304 305 305 304 304 305 307 307 306 305 303 300 296 293 291 290 290 290 289 289 288 286 284 283 280 278 276 273 269 267 270 279
110 111 112 112 114 116 119 120 117 116 116 116 107 89 68 56 55 44 38 44 75 28 337 317 316 326 335 332 334 339 340 328 315 307 301 298 299 300 301 301 302 303 304 305 305 304 304 303 301 299 296 292 290 288 288 287 287 286 284 283 281 278 273 268 261 255 255 262 272
114 114 114 115 118 120 121 121 119 118 118 116 104 85 60 40 42 32 19 0 331 176 313 321 322 329 333 332 329 330 329 320 309 303 299 297 298 299 300 301 302 304 305 305 304 303 302 302 301 300 297 295 292 289 287 286 285 284 282 281 278 274 267 259 250 245 245 252 265
118 118 119 120 121 120 120 120 120 120 119 113 101 89 76 28 23 28 15 324 282 238 217 345 337 335 334 335 333 329 324 316 308 303 300 300 301 301 301 302 304 305 306 306 305 304 303 302 300 298 295 293 291 289 287 285 284 282 280 278 274 268 260 251 246 243 244 248 258
121 123 124 124 122 120 119 118 118 116 113 104 100 98 96 41 341 310 259 263 263 254 11 4 345 339 335 334 332 326 318 314 309 303 301 301 302 301 301 303 306 307 308 309 307 305 304 301 298 295 292 289 287 286 285 286 285 284 281 278 271 263 255 247 244 244 247 252 259
127 127 126 123 119 117 115 111 108 104 101 96 93 89 86 26 305 265 256 251 263 338 0 347 339 334 332 329 326 320 316 315 310 305 302 302 302 302 304 307 310 311 311 311 309 306 303 299 295 292 290 289 287 287 287 288 289 289 287 283 275 266 258 250 247 247 250 254 261
131 128 123 118 112 109 106 102 97 92 88 82 75 64 46 0 311 293 288 290 337 353 348 336 332 328 326 323 321 320 318 317 314 311 308 306 307 308 310 313 314 314 313 311 307 305 302 301 299 297 296 296 296 296 296 296 296 295 294 290 284 275 267 260 257 256 257 258 262
130 125 117 108 103 101 99 94 89 84 80 73 62 46 20 348 330 324 329 344 357 354 347 339 334 331 329 328 326 323 320 317 315 313 312 312 312 313 315 317 317 315 312 309 311 314 315 315 312 310 310 309 308 307 305 303 302 299 296 294 290 285 279 273 269 268 268 269 268
127 118 110 101 99 96 92 88 86 83 77 65 47 29 11 351 342 341 348 357 357 354 349 343 341 340 340 338 331 325 318 313 310 310 311 313 315 317 319 320 319 316 313 310 317 320 322 323 322 320 318 316 314 312 310 307 303 300 297 295 293 292 290 286 281 277 274 274 273
119 111 105 100 95 90 85 82 83 80 72 53 36 20 3 342 337 350 2 3 355 351 349 349 347 345 344 340 332 326 319 311 308 307 309 312 315 317 320 321 321 318 316 316 322 324 325 325 324 323 322 318 317 315 313 310 306 303 299 296 294 293 293 293 291 286 280 276 274
114 107 102 94 87 84 81 77 75 72 64 49 36 17 347 316 337 8 15 7 355 350 351 356 350 346 342 336 329 322 316 310 308 307 307 309 313 316 317 318 319 318 319 321 324 325 325 326 326 326 325 322 319 317 315 312 310 307 303 300 296 293 290 289 289 289 288 285 282
116 109 101 90 84 80 75 69 71 68 61 49 33 353 319 320 8 20 17 6 359 357 357 354 347 342 339 333 321 313 308 306 306 307 308 310 312 313 314 316 318 319 321 323 325 326 327 327 327 328 327 326 322 317 314 312 312 310 307 303 298 293 288 285 285 288 290 294 295
119 110 101 94 90 83 74 68 70 67 60 41 4 322 330 11 26 23 16 7 5 1 354 342 340 338 333 323 312 307 305 304 305 308 312 315 316 316 316 317 318 319 321 323 325 327 328 329 329 329 329 329 325 321 318 316 314 312 308 304 298 293 289 285 285 288 293 301 306
115 109 104 100 95 87 76 69 67 63 50 17 349 3 20 27 24 19 13 6 359 348 338 330 334 328 318 308 305 305 305 304 306 310 315 318 318 319 320 320 319 319 320 324 326 329 330 331 331 331 330 329 327 323 319 318 314 311 308 303 297 291 287 284 286 294 305 314 315
113 110 106 101 95 88 77 67 59 49 35 20 33 35 34 29 19 11 1 351 333 324 324 332 327 314 305 299 300 302 303 305 310 313 316 318 319 319 319 319 317 316 319 325 328 331 332 333 333 332 331 330 329 326 322 318 313 308 303 300 295 291 290 292 301 311 315 316 315
111 108 105 100 94 87 77 61 51 43 42 51 47 41 34 23 4 343 325 319 320 325 330 331 320 312 306 304 304 304 306 309 312 314 316 318 318 318 317 318 316 316 320 327 331 333 334 334 334 333 332 331 330 327 323 316 310 304 300 297 299 303 310 320 321 318 315 312 311
107 104 101 98 95 88 74 55 46 46 53 56 47 39 26 8 344 331 324 323 325 323 320 313 308 304 303 304 305 307 309 310 311 313 316 318 317 317 316 317 316 318 323 329 333 334 335 335 335 334 333 333 331 329 322 313 307 304 305 307 313 321 328 330 324 317 312 308 306
106 101 97 95 93 86 71 50 41 48 52 45 35 29 19 4 347 336 330 325 315 300 290 285 284 283 285 289 295 301 305 309 312 314 316 317 317 317 317 317 315 320 325 330 334 335 336 336 336 335 334 334 333 328 321 313 310 311 315 319 325 329 330 327 322 317 312 307 304
109 104 99 95 92 84 71 50 48 50 47 35 20 9 2 355 336 321 312 309 305 296 284 276 272 273 275 279 285 295 303 309 312 313 314 315 317 317 316 314 310 318 324 330 334 336 337 337 336 335 335 336 333 328 322 320 319 320 323 325 327 328 328 325 321 316 310 305 301
115 112 109 104 97 89 76 64 57 49 40 26 7 354 343 332 312 297 291 299 305 300 291 285 286 289 293 295 297 302 306 309 311 312 313 314 316 316 314 311 308 316 323 330 334 336 336 336 336 336 336 336 334 330 327 326 324 324 326 327 329 329 328 323 316 311 306 301 298
118 117 116 114 111 107 95 81 60 47 31 9 348 333 324 317 300 290 284 294 304 299 294 291 295 297 299 301 303 303 303 304 307 309 311 313 314 313 311 309 307 313 321 328 333 335 336 336 336 336 337 336 333 331 329 327 324 324 324 325 326 326 324 317 311 306 301 297 297
120 119 121 122 124 122 107 80 62 44 18 340 315 300 297 302 293 285 280 277 286 290 292 294 296 296 296 298 300 301 301 301 304 306 308 309 309 308 308 308 308 311 318 326 330 333 334 335 336 337 337 335 333 330 327 324 321 321 323 324 323 321 318 313 308 303 299 296 299
123 124 126 128 129 122 103 78 63 40 344 312 300 297 295 289 279 272 269 264 262 272 282 289 292 293 295 300 304 305 305 304 304 304 304 304 303 305 307 308 308 309 314 322 327 330 333 334 335 336 336 334 332 328 325 321 320 320 321 322 319 315 311 307 303 300 298 296 301
126 126 127 127 126 118 102 79 60 280 262 285 296 294 288 275 268 267 267 264 256 261 271 281 287 291 296 304 306 306 306 306 305 303 300 298 300 305 309 309 306 306 309 316 322 327 331 333 334 336 336 333 331 328 324 321 320 320 320 319 315 311 307 303 299 298 298 298 300
125 124 122 120 119 114 107 89 297 271 262 271 275 272 269 265 266 268 271 274 271 271 275 282 289 293 298 304 305 306 305 305 304 301 298 298 300 305 308 306 303 302 303 308 317 324 329 332 334 334 335 333 331 328 325 322 320 319 318 314 310 306 303 302 300 300 300 300 298